Radiation Dose at Monitoring Post of Fukushima Daini Nuclear Power Station
Date,Time,MP-1(microSv/h),MP-2(microSv/h),MP-3(microSv/h),MP-4(microSv/h),MP-5(microSv/h),MP-6(microSv/h),MP-7(microSv/h),Wind Direction,Wind Velocity(m/s),Rain
2015/03/02,00:00,0.518,0.324,0.532,0.487,0.543,0.247,0.220,northwest,13.4,Yes
2015/03/02,00:10,0.520,0.324,0.536,0.489,0.541,0.247,0.219,northwest,13.2,Yes
2015/03/02,00:20,0.522,0.326,0.534,0.490,0.541,0.248,0.220,northwest,12.1,Yes
2015/03/02,00:30,0.521,0.325,0.535,0.491,0.541,0.246,0.218,northwest,10.7,No
2015/03/02,00:40,0.522,0.326,0.535,0.489,0.542,0.247,0.217,northwest,11.9,No
2015/03/02,00:50,0.522,0.324,0.537,0.491,0.541,0.247,0.220,northwest,11.2,No
2015/03/02,01:00,0.522,0.324,0.535,0.492,0.540,0.244,0.218,north-northwest,10.2,No
2015/03/02,01:10,0.519,0.324,0.535,0.490,0.542,0.246,0.219,northwest,8.7,No
2015/03/02,01:20,0.523,0.324,0.536,0.491,0.542,0.245,0.217,northwest,9.9,No
2015/03/02,01:30,0.523,0.322,0.536,0.492,0.542,0.245,0.217,northwest,7.8,No
2015/03/02,01:40,0.521,0.322,0.534,0.492,0.540,0.244,0.218,northwest,9.2,No
2015/03/02,01:50,0.523,0.323,0.535,0.493,0.541,0.247,0.217,north-northwest,9.9,No
2015/03/02,02:00,0.524,0.322,0.534,0.492,0.542,0.245,0.218,northwest,8.4,No
2015/03/02,02:10,0.520,0.323,0.535,0.493,0.540,0.244,0.216,north-northwest,9.0,No
2015/03/02,02:20,0.522,0.323,0.536,0.491,0.542,0.245,0.217,north-northwest,7.9,No
2015/03/02,02:30,0.525,0.323,0.537,0.493,0.542,0.246,0.218,north-northwest,6.6,No
2015/03/02,02:40,0.522,0.323,0.538,0.494,0.542,0.247,0.216,north-northwest,7.3,No
2015/03/02,02:50,0.523,0.324,0.535,0.494,0.541,0.245,0.217,north-northwest,5.8,No
2015/03/02,03:00,0.526,0.323,0.540,0.494,0.542,0.246,0.217,north,8.4,No
2015/03/02,03:10,0.523,0.324,0.538,0.493,0.541,0.247,0.217,north,7.7,No
2015/03/02,03:20,0.525,0.322,0.537,0.495,0.541,0.246,0.218,north-northwest,7.5,No
2015/03/02,03:30,0.527,0.324,0.537,0.495,0.540,0.246,0.217,north-northwest,7.1,No
2015/03/02,03:40,0.526,0.324,0.540,0.494,0.541,0.246,0.218,north-northwest,5.8,No
2015/03/02,03:50,0.525,0.323,0.539,0.494,0.543,0.246,0.217,north,3.6,No
2015/03/02,04:00,0.529,0.323,0.538,0.496,0.540,0.247,0.217,north,3.8,No
2015/03/02,04:10,0.526,0.324,0.539,0.494,0.541,0.247,0.219,north-northwest,5.3,No
2015/03/02,04:20,0.527,0.324,0.539,0.494,0.543,0.247,0.217,north,3.2,No
2015/03/02,04:30,0.526,0.323,0.540,0.495,0.541,0.245,0.217,north-northwest,3.0,No
2015/03/02,04:40,0.529,0.322,0.539,0.496,0.540,0.247,0.219,north-northeast,2.2,No
2015/03/02,04:50,0.525,0.323,0.540,0.495,0.541,0.247,0.217,north-northeast,2.5,No
2015/03/02,05:00,0.525,0.324,0.539,0.494,0.543,0.246,0.217,north-northeast,2.9,No
2015/03/02,05:10,0.529,0.323,0.538,0.495,0.541,0.246,0.219,north-northwest,1.7,No
2015/03/02,05:20,0.526,0.323,0.541,0.496,0.540,0.247,0.217,northwest,3.5,No
2015/03/02,05:30,0.527,0.325,0.541,0.496,0.543,0.248,0.219,north-northwest,5.3,No
2015/03/02,05:40,0.527,0.325,0.540,0.495,0.544,0.247,0.219,north-northwest,6.0,No
2015/03/02,05:50,0.528,0.323,0.541,0.496,0.541,0.248,0.218,north-northwest,2.8,No
2015/03/02,06:00,0.527,0.324,0.542,0.495,0.542,0.247,0.218,north-northwest,3.9,No
2015/03/02,06:10,0.526,0.324,0.541,0.497,0.543,0.247,0.219,north,2.7,No
2015/03/02,06:20,0.529,0.324,0.541,0.497,0.542,0.247,0.218,north-northwest,1.4,No
2015/03/02,06:30,0.527,0.323,0.539,0.495,0.541,0.246,0.219,west,2.0,No
2015/03/02,06:40,0.527,0.324,0.543,0.496,0.544,0.248,0.217,west-northwest,1.3,No
2015/03/02,06:50,0.527,0.325,0.541,0.496,0.543,0.248,0.218,west-northwest,1.1,No
2015/03/02,07:00,0.527,0.325,0.543,0.495,0.541,0.248,0.219,north-northwest,3.3,No
2015/03/02,07:10,0.529,0.323,0.542,0.497,0.541,0.247,0.219,northwest,3.5,No
2015/03/02,07:20,0.527,0.324,0.543,0.496,0.544,0.247,0.219,north-northwest,2.4,No
2015/03/02,07:30,0.529,0.324,0.542,0.495,0.545,0.247,0.219,west-northwest,1.5,No
2015/03/02,07:40,0.528,0.326,0.541,0.497,0.541,0.247,0.219,northwest,3.4,No
2015/03/02,07:50,0.528,0.324,0.542,0.495,0.540,0.249,0.218,north-northwest,3.7,No
2015/03/02,08:00,0.528,0.325,0.539,0.496,0.542,0.248,0.218,north-northwest,3.7,No
2015/03/02,08:10,0.530,0.325,0.541,0.496,0.543,0.248,0.219,west,1.1,No
2015/03/02,08:20,0.528,0.324,0.543,0.497,0.540,0.248,0.218,northwest,3.0,No
2015/03/02,08:30,0.530,0.324,0.543,0.496,0.543,0.248,0.218,west-northwest,2.3,No
2015/03/02,08:40,0.530,0.325,0.541,0.499,0.544,0.248,0.218,west-southwest,4.3,No
2015/03/02,08:50,0.528,0.325,0.540,0.496,0.542,0.249,0.219,north-northwest,2.0,No
2015/03/02,09:00,0.529,0.324,0.544,0.496,0.542,0.249,0.218,west-northwest,2.7,No
2015/03/02,09:10,0.530,0.323,0.543,0.498,0.543,0.251,0.219,west,1.7,No
2015/03/02,09:20,0.529,0.324,0.542,0.496,0.543,0.248,0.220,north-northwest,2.5,No
2015/03/02,09:30,0.527,0.325,0.543,0.498,0.541,0.249,0.219,northwest,5.8,No
2015/03/02,09:40,0.531,0.326,0.543,0.500,0.543,0.249,0.219,north,5.7,No
2015/03/02,09:50,0.530,0.326,0.542,0.499,0.544,0.249,0.219,north,5.9,No
2015/03/02,10:00,0.530,0.325,0.542,0.501,0.544,0.250,0.220,northwest,4.8,No
2015/03/02,10:10,0.533,0.325,0.545,0.501,0.546,0.251,0.221,west-northwest,6.2,No
2015/03/02,10:20,0.531,0.326,0.544,0.498,0.544,0.250,0.220,west-northwest,5.4,No
2015/03/02,10:30,0.530,0.325,0.543,0.499,0.543,0.250,0.221,west-northwest,7.3,No
2015/03/02,10:40,0.531,0.327,0.547,0.497,0.548,0.250,0.219,northwest,6.2,No
2015/03/02,10:50,0.530,0.326,0.545,0.500,0.545,0.250,0.221,north-northwest,6.5,No
2015/03/02,11:00,0.533,0.327,0.544,0.499,0.549,0.251,0.221,north-northwest,5.8,No
2015/03/02,11:10,0.531,0.326,0.546,0.500,0.544,0.249,0.221,west-northwest,3.4,No
2015/03/02,11:20,0.533,0.326,0.545,0.501,0.546,0.251,0.221,west,4.4,No
2015/03/02,11:30,0.530,0.325,0.544,0.499,0.546,0.250,0.221,northwest,4.4,No
2015/03/02,11:40,0.532,0.326,0.547,0.502,0.545,0.251,0.221,west,9.0,No
2015/03/02,11:50,0.534,0.325,0.544,0.500,0.550,0.250,0.221,west-northwest,9.4,No
2015/03/02,12:00,0.532,0.327,0.548,0.503,0.545,0.250,0.222,west,8.8,No
2015/03/02,12:10,0.533,0.328,0.543,0.500,0.549,0.251,0.221,west-northwest,10.9,No
2015/03/02,12:20,0.532,0.326,0.547,0.501,0.547,0.250,0.222,west-northwest,11.2,No
2015/03/02,12:30,0.532,0.329,0.545,0.500,0.548,0.251,0.221,west-northwest,9.1,No
2015/03/02,12:40,0.534,0.326,0.545,0.503,0.549,0.249,0.220,northwest,7.5,No
2015/03/02,12:50,0.531,0.326,0.551,0.502,0.547,0.252,0.224,west-northwest,10.2,No
2015/03/02,13:00,0.536,0.328,0.546,0.502,0.548,0.250,0.222,northwest,9.8,No
2015/03/02,13:10,0.534,0.327,0.550,0.503,0.545,0.251,0.223,west-northwest,8.1,No
2015/03/02,13:20,0.533,0.328,0.548,0.501,0.549,0.251,0.221,northwest,6.4,No
2015/03/02,13:30,0.536,0.329,0.546,0.505,0.547,0.251,0.222,west,8.5,No
2015/03/02,13:40,0.535,0.327,0.549,0.502,0.552,0.252,0.222,west-southwest,10.1,No
2015/03/02,13:50,0.536,0.328,0.544,0.505,0.549,0.251,0.223,west,7.9,No
2015/03/02,14:00,0.536,0.326,0.549,0.501,0.548,0.252,0.223,west,8.7,No
2015/03/02,14:10,0.534,0.328,0.546,0.504,0.548,0.251,0.222,west-northwest,6.4,No
2015/03/02,14:20,0.538,0.328,0.549,0.505,0.546,0.251,0.221,west,7.4,No
2015/03/02,14:30,0.533,0.328,0.543,0.504,0.552,0.251,0.223,west-northwest,4.7,No
2015/03/02,14:40,0.537,0.328,0.549,0.504,0.545,0.253,0.223,west-northwest,7.3,No
2015/03/02,14:50,0.535,0.327,0.549,0.503,0.550,0.253,0.222,northwest,8.1,No
2015/03/02,15:00,0.536,0.328,0.548,0.506,0.544,0.251,0.223,west-northwest,7.5,No
2015/03/02,15:10,0.536,0.326,0.552,0.505,0.550,0.252,0.224,west-northwest,4.5,No
2015/03/02,15:20,0.534,0.327,0.552,0.505,0.549,0.251,0.224,west-northwest,5.9,No
2015/03/02,15:30,0.537,0.329,0.549,0.507,0.550,0.252,0.224,northwest,5.9,No
2015/03/02,15:40,0.536,0.329,0.552,0.506,0.552,0.250,0.222,west-northwest,5.8,No
2015/03/02,15:50,0.535,0.328,0.550,0.506,0.548,0.251,0.225,northwest,2.9,No
2015/03/02,16:00,0.537,0.330,0.551,0.506,0.548,0.250,0.222,west-northwest,2.9,No
2015/03/02,16:10,0.536,0.329,0.551,0.506,0.551,0.253,0.223,west,2.0,No
2015/03/02,16:20,0.537,0.328,0.551,0.503,0.548,0.252,0.223,west-northwest,2.4,No
2015/03/02,16:30,0.538,0.329,0.549,0.507,0.548,0.252,0.224,west,0.8,No
2015/03/02,16:40,0.537,0.330,0.552,0.504,0.549,0.252,0.224,west,3.4,No
2015/03/02,16:50,0.536,0.328,0.553,0.506,0.548,0.252,0.224,northwest,2.2,No
2015/03/02,17:00,0.540,0.328,0.551,0.506,0.549,0.252,0.223,north-northwest,2.5,No
2015/03/02,17:10,0.537,0.329,0.550,0.506,0.549,0.252,0.224,north-northwest,1.2,No
2015/03/02,17:20,0.536,0.330,0.551,0.506,0.549,0.252,0.224,north,1.9,No
2015/03/02,17:30,0.538,0.330,0.551,0.508,0.546,0.253,0.225,north,2.8,No
2015/03/02,17:40,0.538,0.327,0.549,0.505,0.548,0.252,0.223,northwest,3.6,No
2015/03/02,17:50,0.537,0.329,0.551,0.506,0.549,0.253,0.223,west-northwest,4.1,No
2015/03/02,18:00,0.536,0.330,0.551,0.505,0.547,0.253,0.224,west-southwest,2.5,No
2015/03/02,18:10,0.540,0.328,0.550,0.504,0.547,0.252,0.225,west-northwest,2.1,No
2015/03/02,18:20,0.537,0.328,0.550,0.504,0.548,0.252,0.223,west,3.3,No
2015/03/02,18:30,0.537,0.328,0.553,0.505,0.549,0.252,0.224,north-northwest,2.9,No
2015/03/02,18:40,0.538,0.330,0.552,0.507,0.545,0.252,0.224,west-northwest,4.7,No
2015/03/02,18:50,0.539,0.329,0.550,0.505,0.546,0.252,0.223,north-northwest,2.2,No
2015/03/02,19:00,0.537,0.328,0.549,0.506,0.546,0.251,0.224,northwest,4.7,No
2015/03/02,19:10,0.537,0.328,0.551,0.506,0.549,0.252,0.223,north-northwest,3.5,No
2015/03/02,19:20,0.538,0.328,0.553,0.506,0.546,0.252,0.223,north-northwest,1.6,No
2015/03/02,19:30,0.537,0.330,0.550,0.504,0.547,0.252,0.224,north-northwest,1.9,No
2015/03/02,19:40,0.538,0.328,0.551,0.505,0.547,0.252,0.224,northwest,2.7,No
2015/03/02,19:50,0.537,0.329,0.553,0.506,0.548,0.254,0.223,north-northwest,1.9,No
2015/03/02,20:00,0.538,0.329,0.552,0.505,0.546,0.253,0.223,northwest,2.8,No
2015/03/02,20:10,0.537,0.331,0.551,0.505,0.547,0.253,0.224,west-northwest,2.9,No
2015/03/02,20:20,0.538,0.330,0.551,0.506,0.545,0.252,0.224,west-northwest,0.6,No
2015/03/02,20:30,0.537,0.329,0.553,0.505,0.548,0.252,0.223,-,CALM,No
2015/03/02,20:40,0.538,0.329,0.552,0.507,0.547,0.251,0.223,west,0.7,No
2015/03/02,20:50,0.538,0.329,0.551,0.505,0.545,0.253,0.222,west-northwest,1.1,No
2015/03/02,21:00,0.538,0.330,0.553,0.505,0.547,0.253,0.224,northwest,2.2,No
2015/03/02,21:10,0.536,0.330,0.551,0.505,0.549,0.251,0.224,west-northwest,1.9,No
2015/03/02,21:20,0.537,0.327,0.552,0.504,0.548,0.252,0.223,west-southwest,1.5,No
2015/03/02,21:30,0.538,0.328,0.552,0.506,0.547,0.252,0.223,west,1.4,No
2015/03/02,21:40,0.538,0.329,0.549,0.506,0.546,0.254,0.223,west,1.1,No
2015/03/02,21:50,0.537,0.329,0.554,0.507,0.548,0.253,0.223,west-southwest,1.4,No
2015/03/02,22:00,0.537,0.330,0.552,0.507,0.549,0.254,0.225,north,1.4,No
2015/03/02,22:10,0.537,0.329,0.552,0.506,0.546,0.254,0.224,north-northwest,3.8,No
2015/03/02,22:20,0.535,0.329,0.551,0.505,0.547,0.253,0.222,west-northwest,2.2,No
2015/03/02,22:30,0.540,0.330,0.552,0.506,0.547,0.253,0.224,west-northwest,2.9,No
2015/03/02,22:40,0.535,0.329,0.551,0.506,0.550,0.253,0.224,northwest,2.5,No
2015/03/02,22:50,0.535,0.329,0.552,0.506,0.549,0.252,0.224,northwest,3.6,No
2015/03/02,23:00,0.538,0.329,0.551,0.507,0.547,0.252,0.224,west-northwest,3.9,No
2015/03/02,23:10,0.537,0.330,0.551,0.506,0.546,0.252,0.225,west-northwest,3.3,No
2015/03/02,23:20,0.536,0.329,0.553,0.507,0.545,0.253,0.224,northwest,3.5,No
2015/03/02,23:30,0.536,0.329,0.551,0.506,0.547,0.253,0.224,northwest,2.5,No
2015/03/02,23:40,0.536,0.329,0.552,0.506,0.546,0.252,0.224,west-northwest,3.3,No
2015/03/02,23:50,0.537,0.329,0.552,0.506,0.547,0.253,0.224,west-northwest,3.8,No
